| time (UTC) | temp F | wind direction | speed MPH | gust MPH | rain 1hr in | rain 24hr in | rain mn in | humidity % | barometer mb |
| 20260905111027 | 61 | 113 | 4.0 | 7.0 | 0.00 | 0.00 | 0.00 | 100 | 1015.3 |
| 20260905110527 | 62 | 79 | 3.0 | 6.0 | 0.00 | 0.00 | 0.00 | 100 | 1015.3 |
| 20260905110025 | 62 | 83 | 2.0 | 7.0 | 0.00 | 0.00 | 0.00 | 100 | 1015.3 |
| 20260905105525 | 62 | 94 | 1.0 | 7.0 | 0.00 | 0.00 | 0.00 | 100 | 1015.3 |
| 20260905105025 | 62 | 99 | 3.0 | 7.0 | 0.00 | 0.00 | 0.00 | 100 | 1015.2 |
| 20260905104526 | 62 | 88 | 1.0 | 4.0 | 0.00 | 0.00 | 0.00 | 100 | 1015.1 |
| 20260905104026 | 62 | 82 | 3.0 | 7.0 | 0.00 | 0.00 | 0.00 | 100 | 1015.1 |
| 20260905103523 | 62 | 101 | 3.0 | 7.0 | 0.00 | 0.00 | 0.00 | 100 | 1014.8 |
| 20260905103023 | 62 | 90 | 3.0 | 6.0 | 0.00 | 0.00 | 0.00 | 100 | 1014.8 |
| 20260905102523 | 62 | 110 | 3.0 | 6.0 | 0.00 | 0.00 | 0.00 | 100 | 1014.8 |
| 20260905102022 | 62 | 92 | 3.0 | 5.0 | 0.00 | 0.00 | 0.00 | 100 | 1014.9 |
| 20260905101526 | 62 | 92 | 2.0 | 4.0 | 0.00 | 0.00 | 0.00 | 100 | 1014.9 |
| 20260905101023 | 62 | 107 | 2.0 | 4.0 | 0.00 | 0.00 | 0.00 | 100 | 1014.8 |
| 20260905100522 | 62 | 95 | 1.0 | 4.0 | 0.00 | 0.00 | 0.00 | 100 | 1015.0 |
| 20260905100021 | 62 | 81 | 1.0 | 4.0 | 0.00 | 0.00 | 0.00 | 100 | 1015.0 |
| 20260905095521 | 62 | 106 | 2.0 | 4.0 | 0.00 | 0.00 | 0.00 | 100 | 1015.2 |
| 20260905095022 | 62 | 107 | 0.0 | 5.0 | 0.00 | 0.00 | 0.00 | 100 | 1014.9 |
| 20260905094522 | 62 | 111 | 3.0 | 8.0 | 0.00 | 0.00 | 0.00 | 100 | 1014.6 |
| 20260905094020 | 62 | 98 | 4.0 | 8.0 | 0.00 | 0.00 | 0.00 | 100 | 1014.4 |
| 20260905093519 | 62 | 119 | 2.0 | 5.0 | 0.00 | 0.00 | 0.00 | 100 | 1014.3 |
| 20260905093019 | 62 | 88 | 1.0 | 6.0 | 0.00 | 0.00 | 0.00 | 100 | 1014.2 |
| 20260905092518 | 62 | 85 | 3.0 | 7.0 | 0.00 | 0.00 | 0.00 | 100 | 1014.1 |
| 20260905092018 | 62 | 113 | 3.0 | 7.0 | 0.00 | 0.00 | 0.00 | 100 | 1014.1 |
| 20260905091518 | 62 | 88 | 2.0 | 9.0 | 0.00 | 0.00 | 0.00 | 100 | 1014.1 |
| 20260905091019 | 62 | 94 | 4.0 | 9.0 | 0.00 | 0.00 | 0.00 | 100 | 1014.2 |
| 20260905090518 | 62 | 105 | 4.0 | 8.0 | 0.00 | 0.00 | 0.00 | 100 | 1014.2 |
| 20260905090016 | 62 | 85 | 3.0 | 8.0 | 0.00 | 0.00 | 0.00 | 100 | 1014.2 |
| 20260905085515 | 62 | 68 | 4.0 | 6.0 | 0.00 | 0.00 | 0.00 | 100 | 1014.4 |
| 20260905085014 | 62 | 81 | 3.0 | 6.0 | 0.00 | 0.00 | 0.00 | 100 | 1014.6 |
| 20260905084513 | 62 | 90 | 3.0 | 6.0 | 0.00 | 0.00 | 0.00 | 100 | 1014.7 |
| 20260905084014 | 62 | 56 | 3.0 | 6.0 | 0.00 | 0.00 | 0.00 | 100 | 1014.8 |
| 20260905083513 | 62 | 94 | 4.0 | 8.0 | 0.00 | 0.00 | 0.00 | 100 | 1014.9 |
| 20260905083018 | 62 | 105 | 4.0 | 8.0 | 0.00 | 0.00 | 0.00 | 100 | 1014.9 |
| 20260905082513 | 62 | 93 | 3.0 | 6.0 | 0.00 | 0.00 | 0.00 | 100 | 1014.9 |
| 20260905082013 | 62 | 82 | 2.0 | 4.0 | 0.00 | 0.00 | 0.00 | 100 | 1015.0 |
| 20260905081512 | 62 | 115 | 2.0 | 5.0 | 0.00 | 0.00 | 0.00 | 100 | 1014.9 |
| 20260905081011 | 62 | 79 | 2.0 | 6.0 | 0.00 | 0.00 | 0.00 | 100 | 1014.8 |
| 20260905080511 | 62 | 48 | 3.0 | 8.0 | 0.00 | 0.00 | 0.00 | 100 | 1014.7 |
| 20260905080012 | 62 | 82 | 4.0 | 10.0 | 0.00 | 0.00 | 0.00 | 100 | 1014.7 |
| 20260905075510 | 62 | 51 | 6.0 | 11.0 | 0.00 | 0.00 | 0.00 | 100 | 1014.8 |
| 20260905075010 | 62 | 58 | 4.0 | 6.0 | 0.00 | 0.00 | 0.00 | 100 | 1014.8 |
| 20260905074516 | 62 | 102 | 2.0 | 6.0 | 0.00 | 0.00 | 0.00 | 100 | 1014.9 |
| 20260905074010 | 62 | 90 | 3.0 | 8.0 | 0.00 | 0.00 | 0.00 | 100 | 1014.9 |
| 20260905073509 | 62 | 107 | 4.0 | 8.0 | 0.00 | 0.00 | 0.00 | 100 | 1014.9 |
| 20260905073009 | 62 | 129 | 4.0 | 6.0 | 0.00 | 0.00 | 0.00 | 99 | 1014.9 |
| 20260905072509 | 62 | 97 | 4.0 | 6.0 | 0.00 | 0.00 | 0.00 | 99 | 1014.9 |
| 20260905072008 | 62 | 86 | 3.0 | 7.0 | 0.00 | 0.00 | 0.00 | 99 | 1014.8 |
| 20260905071516 | 62 | 98 | 2.0 | 7.0 | 0.00 | 0.00 | 0.00 | 99 | 1014.7 |
| 20260905071007 | 62 | 79 | 4.0 | 8.0 | 0.00 | 0.00 | 0.00 | 99 | 1014.7 |
| 20260905070507 | 62 | 68 | 4.0 | 8.0 | 0.00 | 0.00 | 0.00 | 99 | 1014.7 |
| 20260905070008 | 62 | 77 | 3.0 | 6.0 | 0.00 | 0.00 | 0.00 | 99 | 1014.7 |
| 20260905065510 | 63 | 82 | 4.0 | 7.0 | 0.00 | 0.00 | 0.00 | 99 | 1014.6 |
| 20260905065108 | 63 | 54 | 4.0 | 7.0 | 0.00 | 0.00 | 0.00 | 99 | 1014.7 |
| 20260905064507 | 62 | 77 | 3.0 | 8.0 | 0.00 | 0.00 | 0.00 | 99 | 1014.8 |
| 20260905064009 | 62 | 72 | 4.0 | 8.0 | 0.00 | 0.00 | 0.00 | 99 | 1015.0 |
| 20260905063505 | 62 | 75 | 4.0 | 7.0 | 0.00 | 0.00 | 0.00 | 99 | 1014.9 |
| 20260905063005 | 62 | 60 | 3.0 | 6.0 | 0.00 | 0.00 | 0.00 | 99 | 1014.9 |
| 20260905062508 | 62 | 72 | 4.0 | 7.0 | 0.00 | 0.00 | 0.00 | 99 | 1014.8 |
| 20260905062006 | 62 | 51 | 4.0 | 8.0 | 0.00 | 0.00 | 0.00 | 99 | 1014.7 |
| 20260905061506 | 62 | 70 | 5.0 | 10.0 | 0.00 | 0.00 | 0.00 | 99 | 1014.7 |
| 20260905061003 | 62 | 58 | 3.0 | 10.0 | 0.00 | 0.00 | 0.00 | 99 | 1014.6 |
| 20260905060503 | 62 | 70 | 5.0 | 11.0 | 0.00 | 0.00 | 0.00 | 99 | 1014.6 |
| 20260905060003 | 62 | 51 | 8.0 | 11.0 | 0.00 | 0.00 | 0.00 | 98 | 1014.6 |
| 20260905055501 | 62 | 63 | 5.0 | 10.0 | 0.00 | 0.00 | 0.00 | 98 | 1014.6 |
| 20260905055001 | 62 | 64 | 6.0 | 11.0 | 0.00 | 0.00 | 0.00 | 98 | 1014.7 |
| 20260905054501 | 62 | 72 | 4.0 | 7.0 | 0.00 | 0.00 | 0.00 | 98 | 1014.7 |
| 20260905054104 | 62 | 84 | 3.0 | 6.0 | 0.00 | 0.00 | 0.00 | 97 | 1014.8 |
| 20260905053559 | 63 | 61 | 3.0 | 6.0 | 0.00 | 0.00 | 0.00 | 97 | 1014.8 |
| 20260905053100 | 63 | 65 | 2.0 | 6.0 | 0.00 | 0.00 | 0.00 | 97 | 1014.8 |
| 20260905052558 | 63 | 68 | 2.0 | 4.0 | 0.00 | 0.00 | 0.00 | 97 | 1014.9 |
| 20260905052057 | 63 | 85 | 2.0 | 5.0 | 0.00 | 0.00 | 0.00 | 97 | 1014.9 |
| 20260905051556 | 63 | 115 | 2.0 | 6.0 | 0.00 | 0.00 | 0.00 | 97 | 1014.9 |
| 20260905051055 | 63 | 86 | 1.0 | 6.0 | 0.00 | 0.00 | 0.00 | 96 | 1014.6 |
| 20260905050555 | 64 | 71 | 1.0 | 6.0 | 0.00 | 0.00 | 0.00 | 96 | 1014.7 |
| 20260905050053 | 64 | 97 | 2.0 | 6.0 | 0.00 | 0.00 | 0.00 | 96 | 1014.8 |
| 20260905045553 | 64 | 91 | 3.0 | 7.0 | 0.00 | 0.00 | 0.00 | 96 | 1014.7 |
| 20260905045052 | 64 | 41 | 3.0 | 7.0 | 0.00 | 0.00 | 0.00 | 96 | 1014.6 |
| 20260905044552 | 64 | 86 | 4.0 | 7.0 | 0.00 | 0.00 | 0.00 | 96 | 1014.6 |
| 20260905044050 | 64 | 37 | 3.0 | 8.0 | 0.00 | 0.00 | 0.00 | 96 | 1014.6 |
| 20260905043549 | 64 | 101 | 4.0 | 8.0 | 0.00 | 0.00 | 0.00 | 96 | 1014.5 |
| 20260905043048 | 64 | 134 | 2.0 | 7.0 | 0.00 | 0.00 | 0.00 | 96 | 1014.4 |
| 20260905042551 | 65 | 63 | 2.0 | 6.0 | 0.00 | 0.00 | 0.00 | 95 | 1014.3 |
| 20260905042047 | 65 | 77 | 2.0 | 6.0 | 0.00 | 0.00 | 0.00 | 95 | 1014.3 |
| 20260905041547 | 65 | 81 | 3.0 | 6.0 | 0.00 | 0.00 | 0.00 | 95 | 1014.2 |
| 20260905041045 | 65 | 172 | 3.0 | 7.0 | 0.00 | 0.00 | 0.00 | 95 | 1014.2 |
| 20260905040545 | 65 | 71 | 5.0 | 8.0 | 0.00 | 0.00 | 0.00 | 94 | 1014.3 |
| 20260905040051 | 66 | 110 | 6.0 | 9.0 | 0.00 | 0.00 | 0.00 | 94 | 1014.3 |
| 20260905035543 | 66 | 77 | 6.0 | 9.0 | 0.00 | 0.00 | 0.00 | 94 | 1014.3 |
| 20260905035042 | 66 | 120 | 4.0 | 9.0 | 0.00 | 0.00 | 0.00 | 94 | 1014.4 |
| 20260905034541 | 66 | 79 | 2.0 | 6.0 | 0.00 | 0.00 | 0.00 | 93 | 1014.2 |
| 20260905034041 | 66 | 88 | 3.0 | 7.0 | 0.00 | 0.00 | 0.00 | 93 | 1014.2 |
| 20260905033539 | 67 | 89 | 5.0 | 10.0 | 0.00 | 0.00 | 0.00 | 92 | 1014.2 |
| 20260905033039 | 67 | 68 | 5.0 | 10.0 | 0.00 | 0.00 | 0.00 | 92 | 1014.1 |
| 20260905032539 | 67 | 73 | 6.0 | 9.0 | 0.00 | 0.00 | 0.00 | 92 | 1014.1 |
| 20260905032038 | 67 | 91 | 7.0 | 9.0 | 0.00 | 0.00 | 0.00 | 91 | 1014.1 |
| 20260905031538 | 68 | 111 | 6.0 | 11.0 | 0.00 | 0.00 | 0.00 | 91 | 1014.1 |
| 20260905031037 | 68 | 75 | 6.0 | 11.0 | 0.00 | 0.00 | 0.00 | 91 | 1013.9 |
| 20260905030538 | 69 | 70 | 7.0 | 11.0 | 0.00 | 0.00 | 0.00 | 91 | 1013.8 |
| 20260905030044 | 69 | 69 | 6.0 | 9.0 | 0.00 | 0.00 | 0.00 | 91 | 1013.9 |
| 20260905025537 | 69 | 61 | 6.0 | 9.0 | 0.00 | 0.00 | 0.00 | 91 | 1013.9 |
| 20260905025036 | 70 | 68 | 3.0 | 8.0 | 0.00 | 0.00 | 0.00 | 90 | 1014.0 |
| 20260905024536 | 70 | 95 | 4.0 | 8.0 | 0.00 | 0.00 | 0.00 | 90 | 1013.9 |
| 20260905024034 | 70 | 60 | 4.0 | 10.0 | 0.00 | 0.00 | 0.00 | 90 | 1013.8 |
| 20260905023533 | 71 | 48 | 6.0 | 10.0 | 0.00 | 0.00 | 0.00 | 90 | 1013.6 |
| 20260905023033 | 71 | 96 | 5.0 | 7.0 | 0.00 | 0.00 | 0.00 | 90 | 1013.5 |
| 20260905022533 | 71 | 109 | 4.0 | 7.0 | 0.00 | 0.00 | 0.00 | 89 | 1013.5 |
| 20260905022032 | 71 | 54 | 4.0 | 8.0 | 0.00 | 0.00 | 0.00 | 89 | 1013.5 |
| 20260905021532 | 72 | 77 | 5.0 | 8.0 | 0.00 | 0.00 | 0.00 | 89 | 1013.4 |
| 20260905021030 | 72 | 78 | 5.0 | 7.0 | 0.00 | 0.00 | 0.00 | 89 | 1013.3 |
| 20260905020530 | 72 | 112 | 2.0 | 6.0 | 0.00 | 0.00 | 0.00 | 90 | 1013.2 |
| 20260905020032 | 72 | 77 | 2.0 | 5.0 | 0.00 | 0.00 | 0.00 | 90 | 1013.0 |
| 20260905015529 | 72 | 91 | 0.0 | 3.0 | 0.00 | 0.00 | 0.00 | 89 | 1013.1 |
| 20260905015030 | 72 | 79 | 0.0 | 2.0 | 0.00 | 0.00 | 0.00 | 89 | 1013.0 |
| 20260905014528 | 72 | 91 | 0.0 | 3.0 | 0.00 | 0.00 | 0.00 | 89 | 1013.1 |
| 20260905014028 | 72 | 73 | 1.0 | 3.0 | 0.00 | 0.00 | 0.00 | 88 | 1013.0 |
| 20260905013532 | 73 | 77 | 0.0 | 3.0 | 0.00 | 0.00 | 0.00 | 87 | 1012.9 |
| 20260905013028 | 73 | 77 | 0.0 | 3.0 | 0.00 | 0.00 | 0.00 | 87 | 1012.9 |
| 20260905012527 | 73 | 85 | 0.0 | 3.0 | 0.00 | 0.00 | 0.00 | 86 | 1012.8 |
| 20260905012025 | 74 | 117 | 0.0 | 2.0 | 0.00 | 0.00 | 0.00 | 85 | 1012.8 |
| 20260905011525 | 74 | 110 | 0.0 | 2.0 | 0.00 | 0.00 | 0.00 | 85 | 1012.7 |
| 20260905011024 | 75 | 101 | 0.0 | 1.0 | 0.00 | 0.00 | 0.00 | 85 | 1012.6 |
| 20260905010525 | 75 | 97 | 0.0 | 1.0 | 0.00 | 0.00 | 0.00 | 85 | 1012.6 |
| 20260905010124 | 75 | 99 | 0.0 | 1.0 | 0.00 | 0.00 | 0.00 | 85 | 1012.6 |
| 20260905005524 | 75 | 87 | 0.0 | 1.0 | 0.00 | 0.00 | 0.00 | 83 | 1012.6 |
| 20260905005025 | 76 | 88 | 0.0 | 1.0 | 0.00 | 0.00 | 0.00 | 83 | 1012.6 |
| 20260905004524 | 76 | 73 | 0.0 | 3.0 | 0.00 | 0.00 | 0.00 | 82 | 1012.6 |
| 20260905004024 | 77 | 77 | 0.0 | 5.0 | 0.00 | 0.00 | 0.00 | 81 | 1012.5 |
| 20260905003525 | 77 | 67 | 1.0 | 5.0 | 0.00 | 0.00 | 0.00 | 80 | 1012.5 |
| 20260905003022 | 78 | 68 | 0.0 | 5.0 | 0.00 | 0.00 | 0.00 | 78 | 1012.5 |
| 20260905002521 | 78 | 105 | 2.0 | 6.0 | 0.00 | 0.00 | 0.00 | 77 | 1012.4 |
| 20260905002021 | 79 | 68 | 4.0 | 6.0 | 0.00 | 0.00 | 0.00 | 76 | 1012.4 |
| 20260905001521 | 79 | 70 | 4.0 | 6.0 | 0.00 | 0.00 | 0.00 | 76 | 1012.4 |
| 20260905001023 | 80 | 67 | 3.0 | 5.0 | 0.00 | 0.00 | 0.00 | 75 | 1012.4 |
| 20260905000520 | 80 | 91 | 2.0 | 5.0 | 0.00 | 0.00 | 0.00 | 75 | 1012.3 |
| 20260905000020 | 80 | 89 | 2.0 | 7.0 | 0.00 | 0.00 | 0.00 | 74 | 1012.2 |
| 20260904235519 | 80 | 87 | 4.0 | 8.0 | 0.00 | 0.00 | 0.00 | 73 | 1012.2 |
| 20260904235024 | 81 | 65 | 4.0 | 8.0 | 0.00 | 0.00 | 0.00 | 73 | 1012.2 |
| 20260904234521 | 81 | 65 | 1.0 | 6.0 | 0.00 | 0.00 | 0.00 | 73 | 1012.2 |
| 20260904234019 | 81 | 86 | 2.0 | 8.0 | 0.00 | 0.00 | 0.00 | 72 | 1012.2 |
| 20260904233519 | 81 | 60 | 2.0 | 8.0 | 0.00 | 0.00 | 0.00 | 72 | 1012.1 |
| 20260904233019 | 81 | 57 | 4.0 | 8.0 | 0.00 | 0.00 | 0.00 | 71 | 1012.2 |
| 20260904232518 | 82 | 77 | 5.0 | 8.0 | 0.00 | 0.00 | 0.00 | 70 | 1012.2 |
| 20260904232018 | 82 | 83 | 2.0 | 8.0 | 0.00 | 0.00 | 0.00 | 70 | 1012.1 |
| 20260904231517 | 82 | 72 | 4.0 | 8.0 | 0.00 | 0.00 | 0.00 | 68 | 1012.1 |
| 20260904231017 | 82 | 90 | 4.0 | 8.0 | 0.00 | 0.00 | 0.00 | 70 | 1012.1 |
| 20260904230517 | 82 | 73 | 5.0 | 8.0 | 0.00 | 0.00 | 0.00 | 69 | 1012.1 |
| 20260904230025 | 82 | 87 | 3.0 | 10.0 | 0.00 | 0.00 | 0.00 | 68 | 1012.0 |
| 20260904225516 | 82 | 73 | 3.0 | 10.0 | 0.00 | 0.00 | 0.00 | 69 | 1011.9 |
| 20260904225016 | 82 | 58 | 4.0 | 8.0 | 0.00 | 0.00 | 0.00 | 69 | 1011.8 |
| 20260904224525 | 82 | 12 | 5.0 | 9.0 | 0.00 | 0.00 | 0.00 | 68 | 1011.9 |
| 20260904224016 | 82 | 113 | 4.0 | 10.0 | 0.00 | 0.00 | 0.00 | 69 | 1011.8 |
| 20260904223517 | 82 | 70 | 6.0 | 10.0 | 0.00 | 0.00 | 0.00 | 67 | 1011.8 |
| 20260904223015 | 82 | 65 | 4.0 | 10.0 | 0.00 | 0.00 | 0.00 | 68 | 1011.7 |
| 20260904222518 | 82 | 70 | 7.0 | 10.0 | 0.00 | 0.00 | 0.00 | 68 | 1011.7 |
| 20260904222015 | 82 | 81 | 4.0 | 10.0 | 0.00 | 0.00 | 0.00 | 69 | 1011.6 |
| 20260904221521 | 82 | 77 | 6.0 | 10.0 | 0.00 | 0.00 | 0.00 | 67 | 1011.7 |
| 20260904221015 | 82 | 81 | 6.0 | 9.0 | 0.00 | 0.00 | 0.00 | 68 | 1011.7 |
| 20260904220513 | 82 | 108 | 4.0 | 8.0 | 0.00 | 0.00 | 0.00 | 68 | 1011.6 |
| 20260904220012 | 82 | 90 | 4.0 | 8.0 | 0.00 | 0.00 | 0.00 | 69 | 1011.6 |
| 20260904215512 | 82 | 110 | 5.0 | 8.0 | 0.00 | 0.00 | 0.00 | 70 | 1011.5 |
| 20260904215011 | 82 | 85 | 4.0 | 7.0 | 0.00 | 0.00 | 0.00 | 69 | 1011.5 |
| 20260904214517 | 82 | 71 | 4.0 | 7.0 | 0.00 | 0.00 | 0.00 | 70 | 1011.6 |
| 20260904214009 | 82 | 94 | 2.0 | 7.0 | 0.00 | 0.00 | 0.00 | 71 | 1011.7 |
| 20260904213511 | 81 | 98 | 4.0 | 8.0 | 0.00 | 0.00 | 0.00 | 71 | 1011.6 |
| 20260904213009 | 81 | 92 | 5.0 | 8.0 | 0.00 | 0.00 | 0.00 | 71 | 1011.6 |
| 20260904212509 | 81 | 98 | 4.0 | 8.0 | 0.00 | 0.00 | 0.00 | 72 | 1011.5 |
| 20260904212008 | 82 | 105 | 4.0 | 9.0 | 0.00 | 0.00 | 0.00 | 71 | 1011.5 |
| 20260904211507 | 82 | 113 | 5.0 | 9.0 | 0.00 | 0.00 | 0.00 | 72 | 1011.5 |
| 20260904211012 | 82 | 65 | 5.0 | 9.0 | 0.00 | 0.00 | 0.00 | 72 | 1011.4 |
| 20260904210507 | 81 | 81 | 5.0 | 9.0 | 0.00 | 0.00 | 0.00 | 73 | 1011.5 |
| 20260904210006 | 81 | 84 | 5.0 | 8.0 | 0.00 | 0.00 | 0.00 | 74 | 1011.5 |
| 20260904205507 | 81 | 98 | 4.0 | 9.0 | 0.00 | 0.00 | 0.00 | 73 | 1011.6 |
| 20260904205005 | 81 | 77 | 5.0 | 9.0 | 0.00 | 0.00 | 0.00 | 74 | 1011.5 |
| 20260904204508 | 81 | 88 | 4.0 | 8.0 | 0.00 | 0.00 | 0.00 | 74 | 1011.5 |
| 20260904204004 | 80 | 104 | 4.0 | 8.0 | 0.00 | 0.00 | 0.00 | 75 | 1011.5 |
| 20260904203504 | 80 | 103 | 5.0 | 7.0 | 0.00 | 0.00 | 0.00 | 75 | 1011.6 |
| 20260904203003 | 81 | 101 | 4.0 | 7.0 | 0.00 | 0.00 | 0.00 | 75 | 1011.7 |
| 20260904202503 | 80 | 84 | 5.0 | 8.0 | 0.00 | 0.00 | 0.00 | 75 | 1011.7 |
| 20260904202003 | 81 | 108 | 4.0 | 12.0 | 0.00 | 0.00 | 0.00 | 76 | 1011.7 |
| 20260904201503 | 81 | 47 | 7.0 | 12.0 | 0.00 | 0.00 | 0.00 | 75 | 1011.6 |
| 20260904201003 | 80 | 64 | 4.0 | 12.0 | 0.00 | 0.00 | 0.00 | 75 | 1011.6 |
| 20260904200502 | 80 | 93 | 5.0 | 12.0 | 0.00 | 0.00 | 0.00 | 75 | 1011.6 |
| 20260904200002 | 80 | 96 | 6.0 | 10.0 | 0.00 | 0.00 | 0.00 | 76 | 1011.7 |
| 20260904195504 | 80 | 70 | 6.0 | 11.0 | 0.00 | 0.00 | 0.00 | 76 | 1011.6 |
| 20260904195001 | 80 | 75 | 6.0 | 13.0 | 0.00 | 0.00 | 0.00 | 77 | 1011.6 |
| 20260904194608 | 80 | 152 | 7.0 | 13.0 | 0.00 | 0.00 | 0.00 | 78 | 1011.7 |
| 20260904194100 | 80 | 73 | 9.0 | 11.0 | 0.00 | 0.00 | 0.00 | 77 | 1011.7 |
| 20260904193600 | 80 | 103 | 6.0 | 11.0 | 0.00 | 0.00 | 0.00 | 77 | 1011.7 |
| 20260904193059 | 80 | 69 | 8.0 | 13.0 | 0.00 | 0.00 | 0.00 | 77 | 1011.7 |
| 20260904192558 | 80 | 96 | 7.0 | 10.0 | 0.00 | 0.00 | 0.00 | 77 | 1011.7 |
| 20260904192058 | 80 | 56 | 5.0 | 10.0 | 0.00 | 0.00 | 0.00 | 78 | 1011.6 |
| 20260904191557 | 79 | 97 | 6.0 | 10.0 | 0.00 | 0.00 | 0.00 | 78 | 1011.7 |
| 20260904191156 | 79 | 83 | 5.0 | 9.0 | 0.00 | 0.00 | 0.00 | 78 | 1011.7 |
| 20260904190555 | 79 | 101 | 5.0 | 12.0 | 0.00 | 0.00 | 0.00 | 79 | 1011.7 |
| 20260904190057 | 79 | 77 | 6.0 | 13.0 | 0.00 | 0.00 | 0.00 | 80 | 1011.7 |
| 20260904185554 | 79 | 108 | 5.0 | 13.0 | 0.00 | 0.00 | 0.00 | 80 | 1011.8 |
| 20260904185054 | 79 | 56 | 7.0 | 13.0 | 0.00 | 0.00 | 0.00 | 81 | 1011.8 |
| 20260904184554 | 79 | 81 | 4.0 | 13.0 | 0.00 | 0.00 | 0.00 | 82 | 1011.8 |
| 20260904184055 | 79 | 58 | 7.0 | 12.0 | 0.00 | 0.00 | 0.00 | 81 | 1011.8 |
| 20260904183552 | 78 | 75 | 6.0 | 9.0 | 0.00 | 0.00 | 0.00 | 82 | 1011.8 |
| 20260904183110 | 78 | 98 | 5.0 | 9.0 | 0.00 | 0.00 | 0.00 | 83 | 1011.9 |
| 20260904182549 | 78 | 109 | 4.0 | 11.0 | 0.00 | 0.00 | 0.00 | 84 | 1012.0 |
| 20260904182049 | 77 | 105 | 5.0 | 11.0 | 0.00 | 0.00 | 0.00 | 84 | 1012.0 |
| 20260904181549 | 77 | 85 | 6.0 | 11.0 | 0.00 | 0.00 | 0.00 | 84 | 1011.9 |
| 20260904181051 | 78 | 67 | 5.0 | 11.0 | 0.00 | 0.00 | 0.00 | 84 | 1011.9 |
| 20260904180551 | 77 | 77 | 7.0 | 11.0 | 0.00 | 0.00 | 0.00 | 84 | 1011.8 |
| 20260904180048 | 77 | 75 | 7.0 | 14.0 | 0.00 | 0.00 | 0.00 | 85 | 1011.8 |
| 20260904175547 | 77 | 96 | 7.0 | 14.0 | 0.00 | 0.00 | 0.00 | 85 | 1011.8 |
| 20260904175049 | 77 | 81 | 4.0 | 15.0 | 0.00 | 0.00 | 0.00 | 86 | 1011.8 |
| 20260904174546 | 77 | 75 | 9.0 | 15.0 | 0.00 | 0.00 | 0.00 | 86 | 1011.7 |
| 20260904174043 | 76 | 96 | 6.0 | 14.0 | 0.00 | 0.00 | 0.00 | 87 | 1011.7 |
| 20260904173542 | 76 | 75 | 8.0 | 14.0 | 0.00 | 0.00 | 0.00 | 88 | 1011.7 |
| 20260904173043 | 76 | 74 | 8.0 | 14.0 | 0.00 | 0.00 | 0.00 | 89 | 1011.6 |
| 20260904172539 | 75 | 91 | 6.0 | 14.0 | 0.00 | 0.00 | 0.00 | 90 | 1011.6 |
| 20260904172039 | 75 | 79 | 8.0 | 15.0 | 0.00 | 0.00 | 0.00 | 90 | 1011.6 |
| 20260904171542 | 75 | 52 | 9.0 | 14.0 | 0.00 | 0.00 | 0.00 | 89 | 1011.6 |
| 20260904171042 | 75 | 126 | 7.0 | 14.0 | 0.00 | 0.00 | 0.00 | 90 | 1011.5 |
| 20260904170541 | 75 | 60 | 10.0 | 14.0 | 0.00 | 0.00 | 0.00 | 89 | 1011.5 |
| 20260904170039 | 75 | 123 | 4.0 | 10.0 | 0.00 | 0.00 | 0.00 | 91 | 1011.5 |
| 20260904165536 | 75 | 87 | 4.0 | 10.0 | 0.00 | 0.00 | 0.00 | 91 | 1011.5 |
| 20260904165036 | 75 | 83 | 7.0 | 11.0 | 0.00 | 0.00 | 0.00 | 90 | 1011.5 |
| 20260904164534 | 74 | 86 | 6.0 | 11.0 | 0.00 | 0.00 | 0.00 | 93 | 1011.5 |
| 20260904164034 | 73 | 74 | 7.0 | 11.0 | 0.00 | 0.00 | 0.00 | 93 | 1011.6 |
| 20260904163532 | 73 | 68 | 8.0 | 11.0 | 0.00 | 0.00 | 0.00 | 95 | 1011.4 |
| 20260904163134 | 73 | 114 | 7.0 | 11.0 | 0.00 | 0.00 | 0.00 | 95 | 1011.3 |
| 20260904162531 | 72 | 77 | 7.0 | 11.0 | 0.00 | 0.00 | 0.00 | 96 | 1011.3 |
| 20260904162032 | 72 | 63 | 7.0 | 9.0 | 0.00 | 0.00 | 0.00 | 96 | 1011.3 |
| 20260904161531 | 71 | 86 | 3.0 | 8.0 | 0.00 | 0.00 | 0.00 | 97 | 1011.4 |
| 20260904161030 | 71 | 69 | 4.0 | 7.0 | 0.00 | 0.00 | 0.00 | 98 | 1011.3 |
| 20260904160529 | 71 | 54 | 3.0 | 7.0 | 0.00 | 0.00 | 0.00 | 99 | 1011.2 |
| 20260904160029 | 70 | 82 | 4.0 | 7.0 | 0.00 | 0.00 | 0.00 | 99 | 1011.2 |
| 20260904155529 | 70 | 73 | 0.0 | 7.0 | 0.00 | 0.00 | 0.00 | 100 | 1011.1 |
| 20260904155028 | 69 | 82 | 4.0 | 8.0 | 0.00 | 0.00 | 0.00 | 100 | 1011.1 |
| 20260904154528 | 69 | 98 | 6.0 | 9.0 | 0.00 | 0.00 | 0.00 | 100 | 1011.1 |
| 20260904154028 | 69 | 74 | 5.0 | 9.0 | 0.00 | 0.00 | 0.00 | 100 | 1011.1 |
| 20260904153527 | 68 | 69 | 4.0 | 7.0 | 0.00 | 0.00 | 0.00 | 100 | 1011.0 |
| 20260904153026 | 68 | 96 | 4.0 | 9.0 | 0.00 | 0.00 | 0.00 | 100 | 1010.9 |
| 20260904152526 | 68 | 67 | 4.0 | 9.0 | 0.00 | 0.00 | 0.00 | 100 | 1010.8 |
| 20260904152025 | 68 | 56 | 3.0 | 8.0 | 0.00 | 0.00 | 0.00 | 100 | 1010.8 |
| 20260904151527 | 68 | 58 | 6.0 | 10.0 | 0.00 | 0.00 | 0.00 | 100 | 1010.8 |
| 20260904151024 | 68 | 84 | 5.0 | 8.0 | 0.00 | 0.00 | 0.00 | 100 | 1010.8 |
| 20260904150524 | 68 | 66 | 3.0 | 7.0 | 0.00 | 0.00 | 0.00 | 100 | 1010.7 |
| 20260904150027 | 68 | 47 | 4.0 | 8.0 | 0.00 | 0.00 | 0.00 | 100 | 1010.7 |
| 20260904145524 | 68 | 63 | 5.0 | 7.0 | 0.00 | 0.00 | 0.00 | 100 | 1010.6 |
| 20260904145022 | 68 | 47 | 3.0 | 6.0 | 0.00 | 0.00 | 0.00 | 100 | 1010.6 |
| 20260904144524 | 68 | 23 | 0.0 | 5.0 | 0.00 | 0.00 | 0.00 | 100 | 1010.6 |
| 20260904144022 | 68 | 73 | 2.0 | 5.0 | 0.00 | 0.00 | 0.00 | 100 | 1010.6 |
| 20260904143522 | 68 | 62 | 0.0 | 4.0 | 0.00 | 0.00 | 0.00 | 100 | 1010.5 |
| 20260904143021 | 68 | 69 | 3.0 | 4.0 | 0.00 | 0.00 | 0.00 | 100 | 1010.6 |
| 20260904142520 | 68 | 71 | 2.0 | 4.0 | 0.00 | 0.00 | 0.00 | 100 | 1010.3 |
| 20260904142020 | 67 | 85 | 1.0 | 4.0 | 0.00 | 0.00 | 0.00 | 100 | 1010.3 |
| 20260904141519 | 67 | 65 | 0.0 | 4.0 | 0.00 | 0.00 | 0.00 | 100 | 1010.3 |
| 20260904141017 | 67 | 71 | 1.0 | 4.0 | 0.00 | 0.00 | 0.00 | 100 | 1010.3 |
| 20260904140516 | 67 | 67 | 1.0 | 4.0 | 0.00 | 0.00 | 0.00 | 100 | 1010.2 |
| 20260904140016 | 67 | 63 | 1.0 | 4.0 | 0.00 | 0.00 | 0.00 | 100 | 1010.1 |
| 20260904135516 | 67 | 57 | 1.0 | 4.0 | 0.00 | 0.00 | 0.00 | 100 | 1010.1 |
| 20260904135016 | 67 | 69 | 1.0 | 5.0 | 0.00 | 0.00 | 0.00 | 100 | 1010.1 |
| 20260904134521 | 67 | 60 | 1.0 | 4.0 | 0.00 | 0.00 | 0.00 | 100 | 1010.1 |
| 20260904134016 | 67 | 90 | 0.0 | 4.0 | 0.00 | 0.00 | 0.00 | 100 | 1010.0 |
| 20260904133513 | 67 | 96 | 0.0 | 4.0 | 0.00 | 0.00 | 0.00 | 100 | 1009.8 |
| 20260904133013 | 67 | 101 | 1.0 | 5.0 | 0.00 | 0.00 | 0.00 | 100 | 1009.8 |
| 20260904132513 | 66 | 64 | 3.0 | 5.0 | 0.00 | 0.00 | 0.00 | 100 | 1009.8 |
| 20260904132012 | 66 | 63 | 3.0 | 6.0 | 0.00 | 0.00 | 0.00 | 100 | 1009.8 |
| 20260904131512 | 66 | 73 | 4.0 | 5.0 | 0.00 | 0.00 | 0.00 | 100 | 1009.8 |
| 20260904131011 | 66 | 69 | 3.0 | 5.0 | 0.00 | 0.00 | 0.00 | 100 | 1009.7 |
| 20260904130511 | 66 | 83 | 2.0 | 6.0 | 0.00 | 0.00 | 0.00 | 100 | 1009.7 |
| 20260904130023 | 66 | 73 | 4.0 | 6.0 | 0.00 | 0.00 | 0.00 | 100 | 1009.7 |
| 20260904125512 | 66 | 69 | 3.0 | 6.0 | 0.00 | 0.00 | 0.00 | 100 | 1009.6 |
| 20260904125009 | 66 | 70 | 4.0 | 6.0 | 0.00 | 0.00 | 0.00 | 100 | 1009.6 |
| 20260904124509 | 66 | 72 | 3.0 | 7.0 | 0.00 | 0.00 | 0.00 | 100 | 1009.4 |
| 20260904124010 | 66 | 138 | 4.0 | 7.0 | 0.00 | 0.00 | 0.00 | 100 | 1009.4 |
| 20260904123508 | 66 | 77 | 2.0 | 9.0 | 0.00 | 0.00 | 0.00 | 100 | 1009.3 |
| 20260904123015 | 66 | 68 | 4.0 | 9.0 | 0.00 | 0.00 | 0.00 | 100 | 1009.5 |
| 20260904122505 | 66 | 73 | 6.0 | 8.0 | 0.00 | 0.00 | 0.00 | 100 | 1009.5 |
| 20260904122004 | 67 | 70 | 4.0 | 8.0 | 0.00 | 0.00 | 0.00 | 100 | 1009.4 |
| 20260904121503 | 67 | 75 | 3.0 | 8.0 | 0.00 | 0.00 | 0.00 | 100 | 1009.3 |
| 20260904121001 | 67 | 56 | 5.0 | 8.0 | 0.00 | 0.00 | 0.00 | 100 | 1009.3 |
| 20260904120501 | 67 | 62 | 5.0 | 8.0 | 0.00 | 0.00 | 0.00 | 100 | 1009.3 |
| 20260904120112 | 67 | 65 | 4.0 | 7.0 | 0.00 | 0.00 | 0.00 | 100 | 1009.2 |
| 20260904120034 | 67 | 58 | 3.0 | 8.0 | 0.00 | 0.00 | 0.00 | 100 | 1009.2 |
| 20260904115603 | 67 | 79 | 5.0 | 7.0 | 0.00 | 0.00 | 0.00 | 100 | 1009.1 |
| 20260904115059 | 68 | 61 | 5.0 | 7.0 | 0.00 | 0.00 | 0.00 | 100 | 1009.0 |
| 20260904114558 | 68 | 75 | 2.0 | 6.0 | 0.00 | 0.00 | 0.00 | 100 | 1009.0 |
| 20260904114057 | 68 | 79 | 3.0 | 7.0 | 0.00 | 0.00 | 0.00 | 100 | 1008.9 |
| 20260904113556 | 68 | 72 | 5.0 | 7.0 | 0.00 | 0.00 | 0.00 | 100 | 1009.0 |
| 20260904113056 | 68 | 77 | 4.0 | 8.0 | 0.00 | 0.00 | 0.00 | 100 | 1008.8 |
| 20260904112558 | 68 | 68 | 4.0 | 6.0 | 0.00 | 0.00 | 0.00 | 100 | 1008.8 |
| 20260904112056 | 68 | 65 | 3.0 | 7.0 | 0.00 | 0.00 | 0.00 | 100 | 1008.9 |
| 20260904111553 | 69 | 63 | 3.0 | 7.0 | 0.00 | 0.00 | 0.00 | 100 | 1008.8 |